Regional Weather Roundup
Issued by NWS

Home | Current Version | Previous Version | Text Only | Print | Product List | Glossary Off
Versions: 1 2 3 4 5 6 7 8 9 10 11 12 13 14 15 16 17 18 19 20 21 22 23 24 25 26 27 28 29 30 31 32 33 34 35 36 37 38 39 40 41 42 43 44 45 46 47 48 49 50

000
ASUS43 KLOT 112158
RWRIL

ILLINOIS REGIONAL WEATHER ROUNDUP
NATIONAL WEATHER SERVICE CHICAGO/ROMEOVILLE IL
500 PM CDT FRI JUL 11 2014

NOTE: "FAIR" INDICATES FEW OR NO CLOUDS BELOW 12,000 FEET WITH NO
SIGNIFICANT WEATHER AND/OR OBSTRUCTIONS TO VISIBILITY.

* THESE STATIONS ARE NOT UNDER NWS QUALITY CONTROL. THEY ALSO MAY NOT
  REPORT WEATHER SUCH AS PRECIPITATION OR FOG.

ILZ001-002-007-009-015-016-024-112300-
NORTHWEST ILLINOIS

CITY           SKY/WX    TMP DP  RH WIND       PRES   REMARKS
MOLINE         CLOUDY    78  66  66 S8        30.07R HX  80
$$

ILZ003-004-008-010-011-017-018-112300-
NORTH CENTRAL ILLINOIS

CITY           SKY/WX    TMP DP  RH WIND       PRES   REMARKS
ROCKFORD       NOT AVBL
$$

ILZ005-006-012>014-019>023-112300-
NORTHEAST ILLINOIS

CITY           SKY/WX    TMP DP  RH WIND       PRES   REMARKS
CHICAGO-OHARE  LGT RAIN  73  56  54 S10       30.09F
CHICAGO-MIDWAY CLOUDY    81  51  35 S12       30.09F HX  80
AURORA         CLOUDY    78  56  46 S12       30.11F
WAUKEGAN       CLOUDY    71  56  58 SE7       30.10F
DUPAGE AIRPORT CLOUDY    76  55  48 S7        30.10F
WHEELING       LGT RAIN  74  59  59 S7        30.11F
NORTHERLY ISL    N/A     71  61  70 E12         N/A
$$

LMZ740>746-112300-
SOUTHERN LAKE MICHIGAN

STATION/POSITION SKY/WX   TEMP    WIND        PRES    VSBY  WAVE
                          AIR SEA DIR/SP/G                  HT/PER
                          (F)     (DEG/KT/KT) (MB)    (MI)  (FT/S)
SOUTHERN BUOY              65 64  160/  4/  6 1021.0F         0
WAUKEGAN HARBOR            68     170/  6/  7 1021.3F
HARRISON CRIB              71     100/ 12/ 14   N/A
BURNHAM HARBOR             71     100/  6/ 10   N/A
CALUMET HARBOR             72      50/  8/ 10 1020.9F
MICHIGAN CITY              73      10/  7/  7   N/A
$$

ILZ025>027-034>036-040-047-049-050-058-095>099-112300-
WEST-CENTRAL ILLINOIS

CITY           SKY/WX    TMP DP  RH WIND       PRES   REMARKS
$$

ILZ028>032-037-038-041>044-048-051>054-059>061-112300-
CENTRAL ILLINOIS

CITY           SKY/WX    TMP DP  RH WIND       PRES   REMARKS
PEORIA         NOT AVBL
SPRINGFIELD    PTSUNNY   85  67  54 S9        30.10F HX  87
TAYLORVILLE    NOT AVBL
$$

ILZ033-039-045-046-055>057-062-063-112300-
EAST-CENTRAL ILLINOIS

CITY           SKY/WX    TMP DP  RH WIND       PRES   REMARKS
CHAMPAIGN      MOSUNNY   84  61  45 S10G20    30.13F HX  84
$$

ILZ079-100>102-112300-
SOUTHWEST ILLINOIS

CITY           SKY/WX    TMP DP  RH WIND       PRES   REMARKS
ALTON          MOSUNNY   84  68  58 SE9       30.10  HX  87
CAHOKIA*       MOSUNNY   89  69  51 SE9G18    30.08F HX  93
$$

ILZ064>066-069>071-074>076-080>082-084>086-088>090-092>094-112300-
SOUTH-CENTRAL ILLINOIS

CITY           SKY/WX    TMP DP  RH WIND       PRES   REMARKS
CARBONDALE     SUNNY     88  66  48 S7        30.11F HX  90
$$

ILZ067-068-072-073-078-083-087-091-112300-
SOUTHEAST ILLINOIS

CITY           SKY/WX    TMP DP  RH WIND       PRES   REMARKS
$$

ABBREVIATIONS USED IN REMARKS
   TC - TEMPERATURE IN CELSIUS
  WCI - WIND CHILL INDEX
   HX - HEAT INDEX
  VSB - VISIBILITY
$$




USA.gov is the U.S. government's official web portal to all federal, state and local government web resources and services.